| time (UTC) | temp C | wind direction | speed KPH | gust KPH | rain 1hr cm | rain 24hr cm | rain mn cm | humidity % | barometer mb |
| 20260902100012 | -28 | 88 | 16.1 | 0.0 | 0.00 | 0.00 | 0.00 | 72 | 987.7 |
| 20260902093012 | -28 | 84 | 12.9 | 0.0 | 0.00 | 0.00 | 0.00 | 72 | 987.5 |
| 20260902090012 | -28 | 85 | 16.1 | 0.0 | 0.00 | 0.00 | 0.00 | 73 | 987.2 |
| 20260902083012 | -28 | 86 | 14.5 | 0.0 | 0.00 | 0.00 | 0.00 | 74 | 987.2 |
| 20260902080012 | -27 | 85 | 16.1 | 0.0 | 0.00 | 0.00 | 0.00 | 71 | 987.2 |
| 20260902073012 | -28 | 90 | 14.5 | 0.0 | 0.00 | 0.00 | 0.00 | 73 | 987.2 |
| 20260902070012 | -28 | 101 | 12.9 | 0.0 | 0.00 | 0.00 | 0.00 | 73 | 987.2 |
| 20260902063012 | -30 | 77 | 9.7 | 0.0 | 0.00 | 0.00 | 0.00 | 74 | 986.9 |
| 20260902060012 | -28 | 93 | 12.9 | 0.0 | 0.00 | 0.00 | 0.00 | 75 | 987.0 |
| 20260902053012 | -28 | 80 | 8.0 | 0.0 | 0.00 | 0.00 | 0.00 | 76 | 987.1 |
| 20260902050012 | -27 | 73 | 12.9 | 0.0 | 0.00 | 0.00 | 0.00 | 74 | 987.0 |
| 20260902043012 | -28 | 63 | 9.7 | 0.0 | 0.00 | 0.00 | 0.00 | 73 | 986.8 |
| 20260902040012 | -30 | 68 | 11.3 | 0.0 | 0.00 | 0.00 | 0.00 | 76 | 986.7 |
| 20260902033012 | -30 | 86 | 9.7 | 0.0 | 0.00 | 0.00 | 0.00 | 78 | 986.4 |
| 20260902030012 | -30 | 97 | 6.4 | 0.0 | 0.00 | 0.00 | 0.00 | 79 | 986.3 |
| 20260902023012 | -27 | 82 | 14.5 | 0.0 | 0.00 | 0.00 | 0.00 | 78 | 985.9 |
| 20260902020012 | -27 | 98 | 12.9 | 0.0 | 0.00 | 0.00 | 0.00 | 76 | 986.0 |
| 20260902013012 | -27 | 112 | 9.7 | 0.0 | 0.00 | 0.00 | 0.00 | 74 | 986.0 |
| 20260902010012 | -27 | 93 | 14.5 | 0.0 | 0.00 | 0.00 | 0.00 | 78 | 985.6 |
| 20260902003012 | -27 | 113 | 9.7 | 0.0 | 0.00 | 0.00 | 0.00 | 80 | 985.6 |
| 20260902000012 | -25 | 120 | 6.4 | 0.0 | 0.00 | 0.00 | 0.00 | 75 | 985.5 |
| 20260901233012 | -25 | 110 | 6.4 | 0.0 | 0.00 | 0.00 | 0.00 | 78 | 985.1 |
| 20260901230012 | -25 | 106 | 14.5 | 0.0 | 0.00 | 0.00 | 0.00 | 77 | 984.8 |
| 20260901223012 | -26 | 112 | 12.9 | 0.0 | 0.00 | 0.00 | 0.00 | 80 | 984.6 |
| 20260901220012 | -25 | 104 | 12.9 | 0.0 | 0.00 | 0.00 | 0.00 | 77 | 984.3 |
| 20260901213012 | -25 | 112 | 11.3 | 0.0 | 0.00 | 0.00 | 0.00 | 80 | 983.9 |
| 20260901210012 | -23 | 71 | 17.7 | 0.0 | 0.00 | 0.00 | 0.00 | 77 | 983.5 |
| 20260901203012 | -23 | 74 | 14.5 | 0.0 | 0.00 | 0.00 | 0.00 | 76 | 982.8 |
| 20260901200012 | -22 | 76 | 16.1 | 0.0 | 0.00 | 0.00 | 0.00 | 77 | 982.5 |
| 20260901193012 | -21 | 88 | 24.1 | 0.0 | 0.00 | 0.00 | 0.00 | 78 | 982.2 |
| 20260901190012 | -21 | 91 | 29.0 | 0.0 | 0.00 | 0.00 | 0.00 | 78 | 981.5 |
| 20260901183012 | -21 | 86 | 22.5 | 0.0 | 0.00 | 0.00 | 0.00 | 74 | 981.5 |
| 20260901180012 | -22 | 63 | 20.9 | 0.0 | 0.00 | 0.00 | 0.00 | 81 | 981.0 |
| 20260901173012 | -22 | 77 | 19.3 | 0.0 | 0.00 | 0.00 | 0.00 | 84 | 981.2 |
| 20260901170012 | -22 | 74 | 11.3 | 0.0 | 0.00 | 0.00 | 0.00 | 85 | 981.0 |
| 20260901163012 | -22 | 85 | 9.7 | 0.0 | 0.00 | 0.00 | 0.00 | 85 | 980.6 |
| 20260901160012 | -20 | 90 | 22.5 | 0.0 | 0.00 | 0.00 | 0.00 | 83 | 980.1 |
| 20260901153012 | -21 | 94 | 17.7 | 0.0 | 0.00 | 0.00 | 0.00 | 83 | 979.5 |
| 20260901150012 | -21 | 106 | 14.5 | 0.0 | 0.00 | 0.00 | 0.00 | 86 | 979.5 |
| 20260901143012 | -20 | 108 | 12.9 | 0.0 | 0.00 | 0.00 | 0.00 | 85 | 979.0 |
| 20260901140012 | -20 | 126 | 11.3 | 0.0 | 0.00 | 0.00 | 0.00 | 87 | 978.4 |
| 20260901133012 | -20 | 143 | 8.0 | 0.0 | 0.00 | 0.00 | 0.00 | 87 | 978.1 |
| 20260901130012 | -20 | 132 | 9.7 | 0.0 | 0.00 | 0.00 | 0.00 | 85 | 977.7 |
| 20260901123012 | -20 | 105 | 16.1 | 0.0 | 0.00 | 0.00 | 0.00 | 85 | 977.0 |
| 20260901120012 | -20 | 86 | 29.0 | 0.0 | 0.00 | 0.00 | 0.00 | 83 | 976.2 |
| 20260901113012 | -20 | 87 | 27.4 | 0.0 | 0.00 | 0.00 | 0.00 | 84 | 975.9 |
| 20260901110012 | -20 | 82 | 27.4 | 0.0 | 0.00 | 0.00 | 0.00 | 84 | 975.6 |
| 20260901103012 | -20 | 82 | 33.8 | 0.0 | 0.00 | 0.00 | 0.00 | 84 | 974.9 |